Regional Weather Roundup
Issued by NWS State College, PA

Home | Current Version | Previous Version | Text Only | Print | Product List | Glossary Off
Versions: 1 2 3 4 5 6 7 8 9 10 11 12 13 14 15 16 17 18 19 20 21 22 23 24 25 26 27 28 29 30 31 32 33 34 35 36 37 38 39 40 41 42 43 44 45 46 47 48 49 50

531
ASUS41 KCTP 241510
RWRCTP
REGIONAL WEATHER ROUNDUP
NATIONAL WEATHER SERVICE STATE COLLEGE PA
1100 AM EDT SUN SEP 24 2017

Note: "fair" indicates few or no clouds below 12,000 feet with no
significant weather and/or obstructions to visibility.

* = STATION THAT DOES NOT REPORT PRECIPITATION /E.G. RAIN...SNOW...ETC/
    THUNDER OR FOG.

PAZ002>004-007>009-013>016-020>023-029>032-241600-
WESTERN PENNSYLVANIA

CITY           SKY/WX    TMP DP  RH WIND       PRES   REMARKS
ERIE           SUNNY     83  65  54 NW5       30.19S
MEADVILLE      SUNNY     81  66  60 VRB5      30.22S
FRANKLIN*      SUNNY     79  66  65 NE5       30.23S
NEW CASTLE     FAIR      79  67  66 VRB3      30.21S
BEAVER COUNTY  SUNNY     81  61  50 E5        30.20S
BUTLER*        SUNNY     80  66  62 E8        30.21S
PITTSBURGH INT MOSUNNY   78  61  55 E6        30.19S
PITTSBURGH     SUNNY     78  59  51 NE5       30.19S
INDIANA*       SUNNY     77  66  69 E8        30.23S
LATROBE        SUNNY     73  64  73 CALM      30.20F
WASHINGTON CO* SUNNY     77  63  61 CALM      30.19F
$$

PAZ004>006-010>012-017>019-024>028-033>037-041-042-045-046-049>053-241600-
CENTRAL PENNSYLVANIA

CITY           SKY/WX    TMP DP  RH WIND       PRES   REMARKS
BRADFORD       SUNNY     79  65  62 E10       30.25R
DUBOIS         SUNNY     79  65  62 E5        30.21F
CLEARFIELD     SUNNY     75  64  68 CALM      30.21F
JOHNSTOWN      SUNNY     77  63  61 VRB3      30.24S
ALTOONA        SUNNY     76  63  64 CALM      30.21S
STATE COLLEGE  SUNNY     77  64  65 CALM      30.19F
WILLIAMSPORT   SUNNY     79  66  64 W7        30.14F
SELINSGROVE    SUNNY     76  67  73 VRB3      30.15F
FT INDIANTOWN  SUNNY     82  66  60 NE5       30.12F
CAPITAL CITY   SUNNY     82  63  52 NW5       30.13S
HARRISBURG     SUNNY     80  66  62 W7        30.12S
YORK           SUNNY     81  66  60 VRB5      30.13F
$$

PAZ038>040-043-044-047-048-054-055-060>062-067>071-241600-
EASTERN PENNSYLVANIA

CITY           SKY/WX    TMP DP  RH WIND       PRES   REMARKS
SCRANTON       SUNNY     77  63  61 CALM      30.16S
MOUNT POCONO   SUNNY     80  62  54 NE9G18    30.18S
ALLENTOWN      SUNNY     83  67  58 CALM      30.10F
QUAKERTOWN*    SUNNY     81  66  61 NE7       30.12S
READING        SUNNY     82  68  62 NW3       30.10F
LANCASTER      SUNNY     82  67  60 VRB3      30.12S
COATESVILLE    SUNNY     81  66  61 CALM      30.13S
POTTSTOWN      SUNNY     81  66  60 NE7       30.12F
BLUE BELL      SUNNY     81  64  57 N6        30.11S
DOYLESTOWN     SUNNY     83  66  56 N3        30.10S
WILLOW GROVE   NOT AVBL
NORTH PHILA    SUNNY     84  65  52 NE8       30.10S
PHILADELPHIA   SUNNY     84  63  49 N3        30.09S
$$




USA.gov is the U.S. government's official web portal to all federal, state and local government web resources and services.